Weather History for Tampa Macdill AFB, FL

Change the Weather History Date:

Monday, March 24, 2014

  Actual Average Record
Temperature  
Mean Temperature 67 °F -  
Max Temperature 70 °F 76 °F 84 °F (1997)
Min Temperature 64 °F 58 °F 50 °F (1998)
Cooling Degree Days 2    
Growing Degree Days 17 (Base 50)    
Moisture  
Dew Point 67 °F    
Average Humidity 98    
Maximum Humidity 100    
Minimum Humidity 88    
Precipitation  
Precipitation 0.82 in - - ()
Sea Level Pressure  
Sea Level Pressure 30.00 in    
Wind  
Wind Speed 6 mph (North)    
Max Wind Speed 10 mph    
Max Gust Speed -    
Visibility 9 miles    
Events Rain    
Averages and records for this station are not official NWS values.
T = Trace of Precipitation, MM = Missing Value Source: NWS Daily Summary

Daily Weather History Graph

Daily Weather History Graph

Search for Another Location

Airport:

Trip Planner

Search our weather history database for the weather conditions in past years. The results will help you decide how hot, cold, wet, or windy it might be!

Date:

Astronomy

Mar. 24, 2014 Rise Set
Actual Time 7:29 AM EDT 7:43 PM EDT
Civil Twilight 7:06 AM EDT 8:06 PM EDT
Nautical Twilight 6:38 AM EDT 8:34 PM EDT
Astronomical Twilight 6:11 AM EDT 9:01 PM EDT
Moon 2:30 AM EDT (3/24) 1:35 PM EDT (3/24)
Length of Visible Light 13h 00m
Length of Day
12h 14m
Last Quarter, 43% of the Moon is Illuminated
Mar 24
Last Quarter
Mar 30
New
Apr 7
First Quarter
Apr 15
Full
Apr 22
Last Quarter

Hourly Weather History & Observations

Time (EDT) Temp. Dew Point Humidity Pressure Visibility Wind Dir Wind Speed Gust Speed Precip Events Conditions
12:28 AM 68.0 °F 68.0 °F 100% 30.03 in 10.0 mi NW 8.1 mph - N/A   Mostly Cloudy
12:58 AM 68.7 °F 68.4 °F 99% 30.05 in 10.0 mi NW 8.1 mph - N/A   Overcast
1:03 AM 68.0 °F 68.0 °F 100% 30.04 in 10.0 mi NW 6.9 mph - N/A   Overcast
1:58 AM 69.4 °F 68.9 °F 98% 30.04 in 10.0 mi NNW 8.1 mph - N/A   Overcast
2:58 AM 69.4 °F 68.4 °F 96% 30.04 in 10.0 mi NNW 9.2 mph - N/A   Overcast
3:23 AM 69.8 °F 68.0 °F 94% 30.02 in 10.0 mi NNW 6.9 mph - N/A   Overcast
3:33 AM 69.8 °F 68.0 °F 94% 30.02 in 10.0 mi NNW 6.9 mph - N/A   Overcast
3:55 AM 69.8 °F 68.0 °F 94% 30.04 in 10.0 mi NW 6.9 mph - N/A Rain Light Rain
3:58 AM 68.9 °F 68.0 °F 97% 30.06 in 10.0 mi NW 6.9 mph - 0.00 in Rain Light Rain
4:03 AM 68.0 °F 68.0 °F 100% 30.05 in 10.0 mi Variable 6.9 mph - N/A Rain Light Rain
4:08 AM 68.0 °F 68.0 °F 100% 30.04 in 10.0 mi NW 9.2 mph - N/A Rain Light Rain
4:13 AM 68.0 °F 68.0 °F 100% 30.04 in 10.0 mi NNW 8.1 mph - N/A Rain Light Rain
4:23 AM 68.0 °F 68.0 °F 100% 30.02 in 10.0 mi NNW 5.8 mph - N/A Rain Light Rain
4:33 AM 68.0 °F 68.0 °F 100% 30.01 in 10.0 mi NNW 6.9 mph - N/A Rain Light Rain
4:38 AM 68.0 °F 68.0 °F 100% 30.02 in 10.0 mi NNW 6.9 mph - N/A Rain Light Rain
4:58 AM 67.3 °F 66.9 °F 99% 30.03 in 10.0 mi North 5.8 mph - 0.01 in Rain Light Rain
5:55 AM 66.2 °F 66.2 °F 100% 30.03 in 10.0 mi NNE 4.6 mph - N/A   Partly Cloudy
5:58 AM 66.7 °F 66.7 °F 100% 30.04 in 10.0 mi NE 5.8 mph - 0.04 in   Partly Cloudy
5:59 AM 66.2 °F 66.2 °F 100% 30.02 in 10.0 mi NE 6.9 mph - N/A Rain Light Rain
6:17 AM 66.2 °F 66.2 °F 100% 30.01 in 10.0 mi NE 4.6 mph - N/A   Partly Cloudy
6:58 AM 66.4 °F 66.4 °F 100% 30.01 in 10.0 mi ENE 6.9 mph - 0.00 in   Clear
7:27 AM 66.2 °F 66.2 °F 100% 30.04 in 8.0 mi NNE 4.6 mph - N/A Rain Rain
7:36 AM 66.2 °F 66.2 °F 100% 30.02 in 2.0 mi ENE 4.6 mph - N/A Rain Rain
7:58 AM 66.2 °F 66.2 °F 100% 30.03 in 7.0 mi NE 3.5 mph - N/A Rain Light Rain
8:37 AM 66.2 °F 66.2 °F 100% 30.03 in 10.0 mi ESE 3.5 mph - N/A   Overcast
8:58 AM 66.2 °F 66.2 °F 100% 30.04 in 10.0 mi ESE 6.9 mph - N/A   Overcast
9:58 AM 66.2 °F 66.2 °F 100% 30.08 in 10.0 mi NE 2.3 mph - N/A Rain Light Rain
10:39 AM 66.2 °F 66.2 °F 100% 30.07 in 10.0 mi SSE 2.3 mph - N/A   Mostly Cloudy
10:58 AM 68.0 °F 68.0 °F 100% 30.07 in 10.0 mi ESE 5.8 mph - N/A   Overcast
11:18 AM 68.0 °F 68.0 °F 100% 30.05 in 10.0 mi ESE 8.1 mph - N/A   Mostly Cloudy
11:58 AM 69.8 °F 68.0 °F 94% 30.07 in 10.0 mi SSE 4.6 mph - N/A   Overcast
12:19 PM 69.8 °F 66.2 °F 88% 30.07 in 10.0 mi SSE 5.8 mph - N/A   Mostly Cloudy
12:58 PM 70.2 °F 67.1 °F 90% 30.05 in 10.0 mi South 6.9 mph - N/A   Clear
1:18 PM 69.8 °F 68.0 °F 94% 30.03 in 10.0 mi SE 4.6 mph - N/A   Mostly Cloudy
1:43 PM 69.8 °F 66.2 °F 88% 30.01 in 10.0 mi ESE 3.5 mph - N/A   Mostly Cloudy
1:54 PM 69.8 °F 68.0 °F 94% 30.01 in 10.0 mi ESE 5.8 mph - N/A Rain Light Rain
1:58 PM 70.2 °F 67.3 °F 91% 30.01 in 10.0 mi ESE 5.8 mph - 0.00 in Rain Light Rain
2:09 PM 69.8 °F 66.2 °F 88% 30.00 in 10.0 mi ESE 4.6 mph - N/A   Mostly Cloudy
2:14 PM 69.8 °F 66.2 °F 88% 30.00 in 10.0 mi ESE 5.8 mph - N/A Rain Light Rain
2:24 PM 69.8 °F 68.0 °F 94% 29.99 in 10.0 mi SE 5.8 mph - N/A Rain Light Rain
2:29 PM 69.8 °F 68.0 °F 94% 29.99 in 10.0 mi SSE 4.6 mph - N/A Rain Light Rain
2:58 PM 68.9 °F 67.5 °F 95% 30.00 in 9.0 mi SSE 2.3 mph - 0.01 in Rain Light Rain
3:58 PM 67.6 °F 67.3 °F 99% 29.98 in 8.0 mi Calm Calm - 0.13 in Rain Light Rain
4:03 PM 68.0 °F 68.0 °F 100% 29.97 in 5.0 mi Calm Calm - N/A Rain Light Rain
4:13 PM 68.0 °F 68.0 °F 100% 29.96 in 4.0 mi Calm Calm - N/A Rain Light Rain
4:58 PM 66.4 °F 66.0 °F 99% 29.96 in 4.0 mi South 4.6 mph - 0.11 in Rain Rain
5:38 PM 68.0 °F 68.0 °F 100% 29.94 in 10.0 mi Calm Calm - N/A Rain Light Rain
5:43 PM 68.0 °F 68.0 °F 100% 29.93 in 10.0 mi North 2.3 mph - N/A Rain Light Rain
5:53 PM 68.0 °F 68.0 °F 100% 29.94 in 5.0 mi WNW 3.5 mph - N/A Rain Rain
5:58 PM 67.1 °F 67.1 °F 100% 29.95 in 6.0 mi WNW 3.5 mph - 0.08 in Rain Light Rain
6:18 PM 66.2 °F 66.2 °F 100% 29.91 in 4.0 mi SW 2.3 mph - N/A Rain Rain
6:23 PM 66.2 °F 66.2 °F 100% 29.93 in 5.0 mi WNW 4.6 mph - N/A Rain Light Rain
6:33 PM 66.2 °F 66.2 °F 100% 29.95 in 10.0 mi WNW 8.1 mph - N/A Rain Light Rain
6:38 PM 66.2 °F 66.2 °F 100% 29.96 in 10.0 mi WNW 9.2 mph - N/A Rain Light Rain
6:58 PM 65.7 °F 65.7 °F 100% 29.96 in 4.0 mi West 4.6 mph - 0.10 in Rain Heavy Rain
7:18 PM 66.2 °F 66.2 °F 100% 29.95 in 6.0 mi WNW 2.3 mph - N/A Rain Rain
7:58 PM 64.9 °F 64.9 °F 100% 29.97 in 8.0 mi West 4.6 mph - 0.14 in Rain Light Rain
8:18 PM 64.4 °F 64.4 °F 100% 29.95 in 9.0 mi SW 2.3 mph - N/A Rain Light Rain
8:23 PM 64.4 °F 64.4 °F 100% 29.96 in 8.0 mi WSW 5.8 mph - N/A Rain Rain
8:53 PM 64.4 °F 64.4 °F 100% 29.95 in 10.0 mi SSW 4.6 mph - N/A Rain Light Rain
8:58 PM 64.9 °F 64.9 °F 100% 29.96 in 10.0 mi South 2.3 mph - 0.10 in Rain Light Rain
9:08 PM 64.4 °F 64.4 °F 100% 29.95 in 10.0 mi East 2.3 mph - N/A Rain Light Rain
9:58 PM 65.5 °F 65.5 °F 100% 29.96 in 10.0 mi South 6.9 mph - 0.03 in Rain Light Rain
10:18 PM 66.2 °F 66.2 °F 100% 29.95 in 10.0 mi SSW 8.1 mph - N/A Rain Light Rain
10:23 PM 66.2 °F 66.2 °F 100% 29.95 in 10.0 mi SSW 9.2 mph - N/A Rain Light Rain
10:58 PM 65.1 °F 65.1 °F 100% 29.96 in 10.0 mi SSW 5.8 mph - 0.04 in   Light Drizzle
11:58 PM 64.4 °F 64.4 °F 100% 29.94 in 10.0 mi South 10.4 mph - 0.03 in Rain Light Rain